#timestamp,LO_Frequency,Hit,StdDev 
1460073615.5,286047000.1,P
1460073635.4,286047002.2,N
1460073655.2,286047000.0,N
1460073675.0,286047002.5,N
1460073675.9,286047002.5,N
1460073695.8,286047002.4,N
1460073715.6,286047002.1,N
1460073735.4,286047002.6,N
1460073755.3,286047004.3,N
1460073775.1,286047001.5,N
1460073776.0,286047001.5,N
1460073795.8,286047000.8,N
1460073815.7,286046999.2,N
1460073835.5,286046996.1,N
1460073855.3,286046993.3,Y
1460073875.2,286046993.3,P
1460073895.9,286046996.2,N
1460073915.7,286046996.3,N
1460073935.6,286046993.8,N
1460073955.4,286046996.4,N
1460073975.2,286046993.4,N
1460073995.0,286046995.3,N
1460073995.9,286046995.3,N
1460074015.8,286046996.5,N
1460074035.6,286046996.1,N
1460074055.4,286046994.0,N
1460074075.3,286046996.3,N
1460074095.1,286046998.0,N
1460074096.0,286046998.0,N
1460074115.8,286046995.4,N
1460074135.7,286046995.8,N
1460074155.5,286046994.5,N
1460074175.3,286046994.5,Y
1460074195.2,286046993.4,P
1460074215.9,286046998.7,N
1460074235.7,286046999.2,N
1460074255.6,286046997.4,N
1460074275.4,286046999.0,N
1460074295.2,286046999.6,N
1460074315.1,286047000.8,N
1460074316.0,286047000.8,N
1460074335.8,286047001.0,N
1460074355.6,286046999.7,N
1460074375.4,286047001.3,N
1460074395.3,286047003.4,N
1460074415.1,286047004.5,N
1460074435.8,286047007.6,N
1460074455.7,286047005.6,N
1460074475.5,286047008.4,N
1460074495.3,286047007.3,N
1460074515.2,286047005.0,N
1460074535.9,286047005.3,N
1460074555.7,286047007.4,N
1460074575.6,286047005.1,N
1460074595.4,286047007.4,N
1460074615.2,286047007.6,N
1460074635.1,286047008.7,N
1460074636.0,286047008.7,N
1460074655.8,286047009.2,N
1460074675.6,286047005.7,N
1460074695.5,286047003.4,N
1460074715.3,286047003.1,N
1460074735.1,286047002.9,N
1460074755.8,286047006.4,N
1460074775.7,286047003.2,N
1460074795.5,286047003.3,N
1460074815.3,286047004.0,N
1460074835.2,286047006.0,N
1460074855.9,286047004.2,N
1460074875.7,286047003.0,N
1460074895.6,286047006.0,N
1460074915.4,286047003.5,N
1460074935.2,286047005.5,N
1460074955.1,286047003.2,N
1460074956.0,286047003.2,N
1460074975.8,286047004.6,N
1460074995.6,286047003.2,N
1460075015.5,286047002.5,N
1460075035.3,286047002.0,N
1460075055.1,286047003.8,N
1460075075.9,286047001.9,N
1460075095.7,286047002.0,N
1460075115.5,286047003.3,N
1460075135.4,286047007.4,Y
1460075155.2,286047002.6,P
1460075175.0,286047000.3,N
1460075175.9,286047000.3,N
1460075195.8,286047002.6,N
1460075215.6,286047000.4,N
1460075235.4,286047002.3,N
1460075255.2,286046999.0,N
1460075275.1,286047000.4,N
1460075276.0,286047000.4,N
1460075295.8,286047001.8,N
1460075315.6,286047001.9,N
1460075335.5,286047001.6,N
1460075355.3,286047002.4,N
1460075375.1,286047002.3,N
1460075395.9,286047001.9,N
1460075415.7,286047004.0,Y
1460075435.5,286047002.6,P
1460075455.4,286047003.8,P
1460075475.2,286047005.4,P
1460075495.0,286047001.7,N
1460075495.9,286047001.7,N
1460075515.8,286047004.2,N
1460075535.6,286047002.2,N
1460075555.4,286047004.2,Y
1460075575.3,286046998.6,P
1460075595.1,286046999.6,N
1460075596.0,286046999.6,N
1460075615.8,286046997.1,N
1460075635.7,286046997.6,N
1460075655.5,286046995.9,N
1460075675.3,286046992.3,Y
1460075695.2,286046992.8,P
1460075715.9,286046989.2,P
1460075735.7,286046988.8,N
1460075755.6,286046987.7,Y
1460075775.4,286046998.0,P
1460075795.2,286046995.0,N
1460075815.1,286046996.2,N
1460075816.0,286046996.2,N
1460075835.8,286046996.2,N
1460075855.6,286046993.8,Y
1460075875.5,286046999.0,P
1460075895.3,286047001.1,N
1460075915.1,286047000.3,N
1460075935.9,286047002.4,N
1460075955.7,286047002.3,N
1460075975.5,286047004.4,N
1460075995.4,286047002.6,N
1460076015.2,286047003.8,N
1460076035.0,286047001.6,N
1460076035.9,286047001.6,N
1460076055.7,286047002.8,N
1460076075.6,286047000.2,N
1460076095.4,286046999.8,N
1460076115.2,286047001.3,N
1460076135.1,286047003.7,N
1460076136.0,286047003.7,N
1460076155.8,286047004.7,N
1460076175.6,286047004.0,N
1460076195.5,286047003.9,N
1460076215.3,286047001.3,N
1460076235.1,286047003.9,N
1460076255.9,286047001.4,N
1460076275.7,286047003.2,N
1460076295.5,286047004.6,N
1460076315.4,286047010.3,Y
1460076335.2,286047006.7,P
1460076355.0,286047009.9,P
1460076355.9,286047009.9,P
1460076375.8,286047011.8,Y
1460076395.6,286047004.1,P
1460076415.4,286047004.7,P
1460076435.3,286047006.0,P
1460076455.1,286047005.3,Y
1460076456.0,286047005.3,P
1460076475.8,286047001.7,P
1460076495.7,286046999.8,N
1460076515.5,286046995.5,N
1460076535.3,286046995.9,N
1460076555.2,286046993.3,N
1460076575.9,286046995.8,N
1460076595.7,286046994.9,N
1460076615.5,286046996.3,N
1460076635.4,286046993.7,N
1460076655.2,286046994.7,N
1460076675.0,286046992.1,N
1460076675.9,286046992.1,N
1460076695.8,286046992.3,N
1460076715.6,286046992.6,N
1460076735.4,286046993.0,N
1460076755.3,286046990.1,N
1460076775.1,286046990.1,N
1460076776.0,286046990.1,N
1460076795.8,286046991.0,N
1460076815.7,286046990.4,N
1460076835.5,286046992.2,N
1460076855.3,286046995.9,N
1460076875.2,286046993.4,N
1460076895.9,286046998.0,N
1460076915.7,286046996.4,N
1460076935.5,286046995.8,N
1460076955.4,286046997.6,N
1460076975.2,286046997.1,N
1460076995.0,286046995.8,N
1460076995.9,286046995.8,N
1460077015.8,286046997.1,N
1460077035.6,286046996.6,N
1460077055.4,286046996.9,N
1460077075.3,286046994.4,N
1460077095.1,286046992.1,Y
1460077115.8,286046996.5,P
1460077135.7,286046999.1,N
1460077155.5,286046999.5,N
1460077175.3,286046997.3,N
1460077195.2,286046999.8,N
